Location: Byhalia Creek
(34.8270°N, 89.8040°W)
Time: 20:46:58
(UTC+00:00)

Cosmos 1766 Rocket - Pass Details

Date: 22 April 2026
Orbit: 597 x 626 km, 82.5° (Epoch: 21 May)

Event Time Altitude Azimuth Distance (km) Brightness Sun altitude
Rises 09:22:31 0° 350° (N) 2,866 7.3 -22.4°
Reaches altitude 10° 09:24:45 10° 348° (NNW) 1,955 6.4 -22.0°
Maximum altitude 09:29:02 67° 265° (W) 652 3.4 -21.3°
Enters shadow 09:29:28 62° 229° (SW) 677 3.4 -21.2°
